SCP
0 0 0 0 0 0 0 0 0 0 0 1 1 2 1 3 2 2 1 1 1 1 1 1 1 1 1 1 0 0 0 0 0 0 0 0 0 0 0 0 0 0 0
0 0 0 0 0 0 0 0 0 0 0 0 1 1 1 2 2 2 2 1 1 1 1 1 1 1 1 1 1 0 0 0 0 0 0 0 0 0 0 0 0 0 0
-0 0 0 0 0 0 0 0 0 0 0 0 0 2 1 1 2 1 0 1 1 1 1 1 1 1 1 1 1 0 0 0 0 0 0 0 0 0 0 0 0 0 0
0 0 0 0 0 0 0 0 0 0 0 0 0 0 0 0 0 0 1 0 1 1 1 1 1 1 1 0 0 0 0 0 0 0 0 0 0 0 0 0 0 0 0
0 0 0 1 0 0 0 0 -0 -0 -0 -0 0 0 0 0 0 1 0 1 1 1 1 1 1 0 0 0 0 0 0 0 0 0 0 0 0 0 0 0 0 0 0
0 0 0 2 1 1 1 0 0 0 -0 -0 -0 -0 0 0 0 1 1 0 0 1 1 0 0 0 0 0 0 0 0 0 0 0 0 0 0 0 0 0 0 0 0
0 0 1 2 1 1 0 1 1 1 1 1 0 0 0 0 0 0 1 0 1 0 0 0 0 0 0 0 0 0 0 0 0 0 0 0 0 0 0 0 0 0 0
0 0 2 2 1 0 0 1 2 1 1 0 0 0 0 0 0 1 0 0 0 0 0 0 0 0 0 0 0 0 0 0 0 0 0 0 0 0 0 0 0 0 0
0 0 2 3 1 2 2 2 1 1 0 0 0 0 0 0 0 0 0 0 0 0 0 0 0 0 0 0 0 0 0 0 0 0 0 0 0 0 0 0 0 0 0
0 0 4 3 4 5 3 2 1 0 0 0 0 0 0 0 0 0 0 0 0 0 0 0 0 0 0 0 0 0 0 0 0 0 0 0 0 0 0 0 0 0 0
3 4 4 4 3 2 1 1 0 0 0 0 0 0 0 0 0 0 0 0 0 0 0 0 0 0 0 0 0 0 0 0 0 0 0 0 0 0 0 0 0 0 0
3 3 4 3 2 1 0 0 0 0 0 0 0 0 0 0 0 0 0 0 0 0 0 0 0 0 0 0 0 0 0 0 0 0 0 0 0 0 0 0 0 0 0
1 2 2 1 0 0 0 0 0 0 0 0 0 0 0 0 0 0 0 0 0 0 0 0 0 0 0 0 0 0 0 0 0 0 0 0 0 0 0 0 0 0 0
0 0 0 0 0 0 0 0 0 0 0 0 0 0 0 0 0 0 0 0 0 0 0 0 0 0 0 0 0 0 0 0 0 0 0 0 0 0 0 0 0 0 0
0 0 0 0 0 0 0 0 0 0 0 0 0 0 0 0 0 0 0 0 0 0 0 0 0 0 0 0 0 0 0 0 0 0 0 0 0 0 0 0 0 0 0
0 0 0 0 0 0 0 0 0 0 0 0 0 0 0 0 0 0 0 0 0 0 0 0 0 0 0 0 0 0 0 0 0 0 0 0 0 0 0 0 0 0 0
0 0 0 0 0 0 0 0 0 0 0 0 0 0 0 0 0 0 0 0 0 0 0 0 0 0 0 0 0 0 0 0 0 0 0 0 0 0 0 0 0 0 0
0 0 0 0 0 0 0 0 0 0 0 0 0 0 0 0 0 0 0 0 0 0 0 0 0 0 0 0 0 0 0 0 -0 0 0 0 0 0 0 0 0 0 0
0 0 0 0 0 0 0 0 0 0 0 0 0 0 0 0 0 0 0 0 0 0 0 0 0 0 0 0 0 0 0 0 0 0 0 0 0 0 0 0 0 0 0
0 0 0 0 0 0 0 0 0 0 0 0 0 0 0 0 0 0 0 0 0 0 0 0 0 0 0 0 0 0 0 0 0 0 0 -0 0 -0 -0 -0 0 0 0
0 0 0 0 0 0 0 0 0 0 0 0 0 0 0 0 0 0 0 0 0 0 0 0 0 0 0 0 0 0 0 0 -0 -0 0 0 -0 -0 -0 -0 0 0 0
0 0 0 0 0 0 0 0 0 0 0 0 0 0 0 0 0 0 0 0 0 0 0 0 0 0 0 0 0 0 0 -0 -0 -0 -0 -0 0 0 -0 0 0 0 0
0 0 0 0 0 0 0 0 0 0 0 0 0 0 0 0 0 0 0 0 0 0 0 0 0 0 0 0 0 0 0 0 -0 -0 -0 0 0 0 0 0 0 0 0
0 0 0 0 0 0 0 0 0 0 0 0 0 0 0 0 0 0 0 0 0 0 0 0 0 0 0 0 0 0 0 0 0 -0 0 0 -0 0 0 0 0 0 0
0 0 0 0 0 0 0 0 0 0 0 0 0 0 0 0 0 0 0 0 0 0 0 0 0 0 0 0 0 0 0 0 0 0 0 0 -0 0 0 0 0 0 0
0 0 0 0 0 0 0 0 0 0 0 0 0 0 0 0 0 0 0 0 0 0 0 0 0 0 0 0 0 0 0 0 0 0 -0 0 -0 0 0 0 0 0 0
Wind_Speed_500mb
32 36 24 28 48 62 77 67 70 63 75 80 66 58 62 45 45 41 41 35 40 39 33 26 30 34 40 46 47 46 47 48 50 56 52 46 36 32 35 30 26 18 11
52 43 36 34 47 53 66 73 67 62 63 65 73 59 60 49 45 42 46 38 35 42 36 34 36 38 40 42 42 41 44 43 44 34 28 22 44 25 18 27 22 24 26
70 48 47 38 44 56 59 67 67 47 56 78 69 75 68 50 43 46 54 42 34 34 34 34 36 32 29 32 36 37 33 30 32 23 19 15 16 46 34 29 26 23 20
72 70 63 47 44 45 54 63 71 58 53 64 80 81 89 70 69 65 46 40 25 29 30 29 30 29 27 25 25 25 26 27 21 24 33 32 36 26 38 42 27 40 43
78 79 75 65 44 49 64 62 70 55 48 52 70 88 76 75 62 53 48 31 28 29 28 28 26 23 23 23 23 21 19 20 27 30 36 36 33 40 43 59 59 53 50
69 72 69 67 57 63 76 67 65 58 51 53 57 65 73 69 57 45 37 33 30 28 23 24 23 23 23 20 15 16 19 23 28 31 33 33 33 33 28 39 57 62 69
56 68 74 68 62 68 76 71 70 60 58 44 42 48 43 49 31 34 34 37 30 19 14 19 22 20 18 18 18 19 22 26 29 29 28 29 30 34 39 43 49 56 72
63 60 70 69 71 76 77 75 61 58 44 42 38 34 30 26 42 34 35 27 16 13 15 14 15 17 20 22 22 22 25 30 32 34 36 37 33 36 39 44 51 68 65
61 65 65 74 83 81 74 65 56 49 43 39 37 33 22 32 41 41 35 28 21 15 15 17 16 20 23 23 22 22 24 27 31 35 37 40 44 46 49 53 56 56 59
69 69 76 82 90 86 70 60 55 52 43 41 38 34 29 30 37 39 36 32 23 14 11 11 14 15 18 23 26 29 32 35 37 41 45 48 50 53 56 57 55 53 59
72 78 78 81 79 71 63 63 61 54 48 43 42 37 33 40 41 34 27 18 14 8 6 9 12 17 24 28 32 36 39 42 45 47 49 51 51 48 45 43 44 47 51
81 82 88 88 82 82 73 70 66 60 53 47 47 40 35 28 19 19 18 15 12 9 9 10 15 19 23 28 33 38 43 45 45 44 41 40 41 40 40 45 51 56 57
88 85 84 92 91 80 76 72 67 62 55 54 50 43 39 29 27 26 21 14 8 4 7 12 16 21 27 33 39 42 38 34 34 35 36 36 39 44 50 54 60 63 66
88 85 83 89 94 87 78 76 66 58 53 49 45 43 36 30 27 20 13 6 1 7 11 15 20 25 32 37 30 26 24 25 28 30 32 36 40 45 49 57 64 70 74
80 83 87 86 92 88 78 71 65 57 51 47 42 41 36 29 21 14 7 1 4 6 12 17 22 27 28 19 20 23 24 27 29 32 36 40 48 51 54 64 67 61 58
80 80 88 92 86 80 72 66 62 58 52 51 47 39 31 24 17 9 2 6 10 12 12 14 16 19 16 21 28 30 31 33 34 39 43 50 56 59 57 50 50 49 52
83 84 86 91 81 75 71 70 64 57 54 51 43 33 24 17 12 9 9 12 14 13 13 16 19 24 24 28 31 32 33 37 42 45 51 50 53 53 57 58 58 59 48
90 92 93 87 81 77 73 69 59 53 48 44 37 29 21 18 16 15 17 17 16 16 19 20 23 21 22 26 29 32 38 42 46 52 53 53 56 60 63 67 63 62 58
101 96 88 85 80 74 69 65 58 50 44 40 33 26 21 20 19 17 17 16 15 18 22 22 19 19 20 25 27 32 38 43 49 53 59 54 54 53 56 61 72 64 52
100 93 84 78 73 66 60 58 53 47 43 37 33 26 21 20 19 17 18 18 15 16 20 19 19 18 20 29 24 25 34 44 49 52 52 52 49 46 52 70 68 67 59
91 84 75 70 63 57 53 54 48 46 40 35 31 26 23 22 20 17 18 18 18 17 17 13 15 17 19 20 17 21 34 44 51 52 50 46 43 45 54 61 60 60 58
82 75 74 66 55 48 47 52 47 37 31 28 28 27 24 22 20 16 17 16 17 15 16 14 15 16 15 14 14 18 27 35 43 45 45 41 41 49 52 52 50 47 59
74 66 67 61 49 45 41 48 45 38 36 32 32 29 25 24 23 19 19 18 20 19 21 19 17 15 12 14 14 17 22 22 32 37 46 43 43 46 47 51 55 60 57
64 59 59 57 51 43 43 45 40 38 35 35 33 30 27 25 23 25 26 24 24 24 27 24 21 17 17 16 20 28 22 19 22 28 35 42 49 56 56 54 59 65 70
57 53 53 51 48 40 41 40 36 30 34 34 30 28 28 28 27 30 32 31 30 31 35 36 33 24 25 31 40 38 26 21 25 25 33 37 45 50 55 60 65 66 70
61 61 58 54 47 42 41 43 39 30 32 32 30 32 32 33 34 31 30 32 32 32 34 38 42 44 45 31 26 26 22 18 16 29 38 45 54 59 60 61 65 71 73
Wind_Direction_500mb
215 181 184 168 165 175 186 188 188 189 198 200 217 205 207 211 220 223 225 215 211 209 217 234 245 256 260 255 259 266 271 281 292 295 296 298 297 298 294 283 323 321 281
230 198 205 192 184 182 187 188 191 188 205 209 207 208 207 211 208 220 225 219 212 214 222 231 256 266 261 263 270 280 285 292 294 304 305 316 312 302 285 317 294 303 306
231 215 196 201 188 187 190 191 186 203 205 204 214 210 202 211 201 224 222 207 202 219 229 248 256 256 270 277 281 288 292 295 302 295 293 305 280 305 304 307 282 293 276
237 222 222 208 203 198 197 189 194 201 199 213 214 205 203 213 215 205 208 214 209 229 233 235 250 270 281 285 288 287 295 295 296 292 294 284 283 291 302 301 289 287 288
221 218 219 225 220 219 188 186 194 199 213 216 212 203 204 214 212 212 213 215 216 204 223 245 258 273 285 293 287 290 292 291 286 288 287 289 290 281 273 286 295 289 284
215 219 217 215 216 197 181 184 184 197 204 209 217 210 217 212 213 207 205 198 201 211 226 242 256 271 273 277 276 273 274 278 280 282 286 287 292 291 297 296 295 297 292
200 207 209 204 194 187 183 185 191 194 194 210 209 213 216 210 210 183 174 219 203 201 225 244 249 264 271 277 274 277 281 281 285 293 294 298 306 303 299 298 297 298 293
196 199 207 200 187 182 182 187 201 196 195 195 205 211 207 194 186 180 183 202 203 213 230 231 238 252 262 269 278 286 286 287 291 292 292 296 295 294 295 299 305 304 301
198 193 195 188 181 179 174 183 180 167 168 181 191 204 181 172 175 179 183 193 204 215 194 201 219 247 261 273 283 290 293 294 292 292 293 297 298 299 299 299 300 301 306
191 180 176 174 170 167 167 163 156 155 160 168 177 173 167 168 167 173 182 188 193 194 212 240 249 259 279 293 303 310 304 302 302 303 304 305 305 304 302 299 297 296 298
148 139 146 159 163 163 170 157 155 157 155 162 168 173 174 161 156 161 158 169 186 203 238 251 274 288 296 302 304 305 305 309 311 312 312 311 311 311 312 308 304 301 300
126 130 137 146 148 155 156 149 153 159 163 170 160 159 164 154 170 164 161 169 181 192 228 277 290 291 298 305 311 314 317 318 319 319 318 317 314 311 313 314 315 314 310
120 124 129 132 144 146 151 152 153 150 156 157 152 144 145 160 158 160 165 172 181 226 281 293 300 306 312 317 319 322 325 328 327 323 324 325 324 323 322 318 313 311 307
119 122 118 122 137 141 145 140 140 147 149 148 141 140 144 149 146 144 144 143 61 313 307 307 308 313 317 322 328 336 340 338 338 335 332 339 334 328 321 315 312 308 305
113 114 113 115 127 134 135 137 137 139 144 141 146 140 139 140 137 133 136 164 297 308 310 307 315 321 328 352 8 7 359 352 350 349 347 345 343 330 317 316 320 321 321
107 108 111 121 126 131 130 132 133 134 140 139 134 132 132 131 132 126 74 351 341 332 323 321 338 340 22 45 25 19 15 7 1 355 351 348 339 333 329 331 340 336 327
107 105 109 121 125 126 130 128 130 134 133 131 125 126 127 122 102 67 33 32 34 33 38 38 29 35 40 41 33 31 24 19 11 358 352 346 343 345 351 350 352 350 346
108 113 120 123 124 128 129 130 133 132 128 122 120 117 110 96 85 76 63 52 49 53 64 55 52 43 47 41 36 39 32 26 20 11 359 350 349 354 358 354 352 350 341
117 122 125 127 130 130 133 133 130 127 120 113 108 101 94 92 90 83 75 69 73 80 81 73 62 56 46 54 50 43 38 36 26 15 5 4 3 359 0 357 0 1 0
123 127 128 130 131 133 138 132 127 122 112 108 105 103 100 94 91 84 75 76 96 87 83 80 66 59 52 54 50 43 34 24 20 18 13 17 14 14 12 12 10 14 10
127 129 131 128 129 136 137 125 121 111 108 104 100 98 93 86 78 75 75 86 101 101 89 77 63 66 64 57 50 39 27 22 23 21 25 27 24 22 23 18 17 16 18
125 130 128 126 130 132 130 120 113 113 111 105 100 95 92 87 85 88 90 96 95 99 93 85 78 61 62 58 39 16 16 20 23 23 30 30 31 32 27 18 12 18 23
128 130 127 126 127 126 124 118 115 119 116 111 101 94 92 91 90 97 97 96 94 94 95 89 77 76 62 46 31 17 14 26 29 30 39 35 35 38 31 28 24 23 23
126 130 128 123 120 122 119 115 116 120 117 104 94 94 91 88 95 94 87 79 77 84 72 67 65 57 51 45 35 31 31 41 29 17 29 34 38 41 35 29 29 28 30
124 124 119 117 116 119 115 114 118 116 107 99 93 93 89 86 92 99 91 83 75 72 71 61 54 46 31 24 11 9 21 26 16 20 23 30 35 34 37 34 32 27 27
117 110 106 105 105 108 110 114 119 121 112 100 94 96 91 87 87 88 94 94 90 85 78 74 64 54 42 31 22 24 25 16 359 24 21 28 31 29 26 27 29 28 29
Wind_Speed_850mb
32 36 24 28 48 62 77 67 70 63 75 80 66 58 62 45 45 41 41 35 40 39 33 26 30 34 40 46 47 46 47 48 50 56 52 46 36 32 35 30 26 18 11
52 43 36 34 47 53 66 73 67 62 63 65 73 59 60 49 45 42 46 38 35 42 36 34 36 38 40 42 42 41 44 43 44 34 28 22 44 25 18 27 22 24 26
70 48 47 38 44 56 59 67 67 47 56 78 69 75 68 50 43 46 54 42 34 34 34 34 36 32 29 32 36 37 33 30 32 23 19 15 16 46 34 29 26 23 20
72 70 63 47 44 45 54 63 71 58 53 64 80 81 89 70 69 65 46 40 25 29 30 29 30 29 27 25 25 25 26 27 21 24 33 32 36 26 38 42 27 40 43
78 79 75 65 44 49 64 62 70 55 48 52 70 88 76 75 62 53 48 31 28 29 28 28 26 23 23 23 23 21 19 20 27 30 36 36 33 40 43 59 59 53 50
69 72 69 67 57 63 76 67 65 58 51 53 57 65 73 69 57 45 37 33 30 28 23 24 23 23 23 20 15 16 19 23 28 31 33 33 33 33 28 39 57 62 69
56 68 74 68 62 68 76 71 70 60 58 44 42 48 43 49 31 34 34 37 30 19 14 19 22 20 18 18 18 19 22 26 29 29 28 29 30 34 39 43 49 56 72
63 60 70 69 71 76 77 75 61 58 44 42 38 34 30 26 42 34 35 27 16 13 15 14 15 17 20 22 22 22 25 30 32 34 36 37 33 36 39 44 51 68 65
61 65 65 74 83 81 74 65 56 49 43 39 37 33 22 32 41 41 35 28 21 15 15 17 16 20 23 23 22 22 24 27 31 35 37 40 44 46 49 53 56 56 59
69 69 76 82 90 86 70 60 55 52 43 41 38 34 29 30 37 39 36 32 23 14 11 11 14 15 18 23 26 29 32 35 37 41 45 48 50 53 56 57 55 53 59
72 78 78 81 79 71 63 63 61 54 48 43 42 37 33 40 41 34 27 18 14 8 6 9 12 17 24 28 32 36 39 42 45 47 49 51 51 48 45 43 44 47 51
81 82 88 88 82 82 73 70 66 60 53 47 47 40 35 28 19 19 18 15 12 9 9 10 15 19 23 28 33 38 43 45 45 44 41 40 41 40 40 45 51 56 57
88 85 84 92 91 80 76 72 67 62 55 54 50 43 39 29 27 26 21 14 8 4 7 12 16 21 27 33 39 42 38 34 34 35 36 36 39 44 50 54 60 63 66
88 85 83 89 94 87 78 76 66 58 53 49 45 43 36 30 27 20 13 6 1 7 11 15 20 25 32 37 30 26 24 25 28 30 32 36 40 45 49 57 64 70 74
80 83 87 86 92 88 78 71 65 57 51 47 42 41 36 29 21 14 7 1 4 6 12 17 22 27 28 19 20 23 24 27 29 32 36 40 48 51 54 64 67 61 58
80 80 88 92 86 80 72 66 62 58 52 51 47 39 31 24 17 9 2 6 10 12 12 14 16 19 16 21 28 30 31 33 34 39 43 50 56 59 57 50 50 49 52
83 84 86 91 81 75 71 70 64 57 54 51 43 33 24 17 12 9 9 12 14 13 13 16 19 24 24 28 31 32 33 37 42 45 51 50 53 53 57 58 58 59 48
90 92 93 87 81 77 73 69 59 53 48 44 37 29 21 18 16 15 17 17 16 16 19 20 23 21 22 26 29 32 38 42 46 52 53 53 56 60 63 67 63 62 58
101 96 88 85 80 74 69 65 58 50 44 40 33 26 21 20 19 17 17 16 15 18 22 22 19 19 20 25 27 32 38 43 49 53 59 54 54 53 56 61 72 64 52
100 93 84 78 73 66 60 58 53 47 43 37 33 26 21 20 19 17 18 18 15 16 20 19 19 18 20 29 24 25 34 44 49 52 52 52 49 46 52 70 68 67 59
91 84 75 70 63 57 53 54 48 46 40 35 31 26 23 22 20 17 18 18 18 17 17 13 15 17 19 20 17 21 34 44 51 52 50 46 43 45 54 61 60 60 58
82 75 74 66 55 48 47 52 47 37 31 28 28 27 24 22 20 16 17 16 17 15 16 14 15 16 15 14 14 18 27 35 43 45 45 41 41 49 52 52 50 47 59
74 66 67 61 49 45 41 48 45 38 36 32 32 29 25 24 23 19 19 18 20 19 21 19 17 15 12 14 14 17 22 22 32 37 46 43 43 46 47 51 55 60 57
64 59 59 57 51 43 43 45 40 38 35 35 33 30 27 25 23 25 26 24 24 24 27 24 21 17 17 16 20 28 22 19 22 28 35 42 49 56 56 54 59 65 70
57 53 53 51 48 40 41 40 36 30 34 34 30 28 28 28 27 30 32 31 30 31 35 36 33 24 25 31 40 38 26 21 25 25 33 37 45 50 55 60 65 66 70
61 61 58 54 47 42 41 43 39 30 32 32 30 32 32 33 34 31 30 32 32 32 34 38 42 44 45 31 26 26 22 18 16 29 38 45 54 59 60 61 65 71 73
Wind_Direction_850mb
215 181 184 168 165 175 186 188 188 189 198 200 217 205 207 211 220 223 225 215 211 209 217 234 245 256 260 255 259 266 271 281 292 295 296 298 297 298 294 283 323 321 281
230 198 205 192 184 182 187 188 191 188 205 209 207 208 207 211 208 220 225 219 212 214 222 231 256 266 261 263 270 280 285 292 294 304 305 316 312 302 285 317 294 303 306
231 215 196 201 188 187 190 191 186 203 205 204 214 210 202 211 201 224 222 207 202 219 229 248 256 256 270 277 281 288 292 295 302 295 293 305 280 305 304 307 282 293 276
237 222 222 208 203 198 197 189 194 201 199 213 214 205 203 213 215 205 208 214 209 229 233 235 250 270 281 285 288 287 295 295 296 292 294 284 283 291 302 301 289 287 288
221 218 219 225 220 219 188 186 194 199 213 216 212 203 204 214 212 212 213 215 216 204 223 245 258 273 285 293 287 290 292 291 286 288 287 289 290 281 273 286 295 289 284
215 219 217 215 216 197 181 184 184 197 204 209 217 210 217 212 213 207 205 198 201 211 226 242 256 271 273 277 276 273 274 278 280 282 286 287 292 291 297 296 295 297 292
200 207 209 204 194 187 183 185 191 194 194 210 209 213 216 210 210 183 174 219 203 201 225 244 249 264 271 277 274 277 281 281 285 293 294 298 306 303 299 298 297 298 293
196 199 207 200 187 182 182 187 201 196 195 195 205 211 207 194 186 180 183 202 203 213 230 231 238 252 262 269 278 286 286 287 291 292 292 296 295 294 295 299 305 304 301
198 193 195 188 181 179 174 183 180 167 168 181 191 204 181 172 175 179 183 193 204 215 194 201 219 247 261 273 283 290 293 294 292 292 293 297 298 299 299 299 300 301 306
191 180 176 174 170 167 167 163 156 155 160 168 177 173 167 168 167 173 182 188 193 194 212 240 249 259 279 293 303 310 304 302 302 303 304 305 305 304 302 299 297 296 298
148 139 146 159 163 163 170 157 155 157 155 162 168 173 174 161 156 161 158 169 186 203 238 251 274 288 296 302 304 305 305 309 311 312 312 311 311 311 312 308 304 301 300
126 130 137 146 148 155 156 149 153 159 163 170 160 159 164 154 170 164 161 169 181 192 228 277 290 291 298 305 311 314 317 318 319 319 318 317 314 311 313 314 315 314 310
120 124 129 132 144 146 151 152 153 150 156 157 152 144 145 160 158 160 165 172 181 226 281 293 300 306 312 317 319 322 325 328 327 323 324 325 324 323 322 318 313 311 307
119 122 118 122 137 141 145 140 140 147 149 148 141 140 144 149 146 144 144 143 61 313 307 307 308 313 317 322 328 336 340 338 338 335 332 339 334 328 321 315 312 308 305
113 114 113 115 127 134 135 137 137 139 144 141 146 140 139 140 137 133 136 164 297 308 310 307 315 321 328 352 8 7 359 352 350 349 347 345 343 330 317 316 320 321 321
107 108 111 121 126 131 130 132 133 134 140 139 134 132 132 131 132 126 74 351 341 332 323 321 338 340 22 45 25 19 15 7 1 355 351 348 339 333 329 331 340 336 327
107 105 109 121 125 126 130 128 130 134 133 131 125 126 127 122 102 67 33 32 34 33 38 38 29 35 40 41 33 31 24 19 11 358 352 346 343 345 351 350 352 350 346
108 113 120 123 124 128 129 130 133 132 128 122 120 117 110 96 85 76 63 52 49 53 64 55 52 43 47 41 36 39 32 26 20 11 359 350 349 354 358 354 352 350 341
117 122 125 127 130 130 133 133 130 127 120 113 108 101 94 92 90 83 75 69 73 80 81 73 62 56 46 54 50 43 38 36 26 15 5 4 3 359 0 357 0 1 0
123 127 128 130 131 133 138 132 127 122 112 108 105 103 100 94 91 84 75 76 96 87 83 80 66 59 52 54 50 43 34 24 20 18 13 17 14 14 12 12 10 14 10
127 129 131 128 129 136 137 125 121 111 108 104 100 98 93 86 78 75 75 86 101 101 89 77 63 66 64 57 50 39 27 22 23 21 25 27 24 22 23 18 17 16 18
125 130 128 126 130 132 130 120 113 113 111 105 100 95 92 87 85 88 90 96 95 99 93 85 78 61 62 58 39 16 16 20 23 23 30 30 31 32 27 18 12 18 23
128 130 127 126 127 126 124 118 115 119 116 111 101 94 92 91 90 97 97 96 94 94 95 89 77 76 62 46 31 17 14 26 29 30 39 35 35 38 31 28 24 23 23
126 130 128 123 120 122 119 115 116 120 117 104 94 94 91 88 95 94 87 79 77 84 72 67 65 57 51 45 35 31 31 41 29 17 29 34 38 41 35 29 29 28 30
124 124 119 117 116 119 115 114 118 116 107 99 93 93 89 86 92 99 91 83 75 72 71 61 54 46 31 24 11 9 21 26 16 20 23 30 35 34 37 34 32 27 27
117 110 106 105 105 108 110 114 119 121 112 100 94 96 91 87 87 88 94 94 90 85 78 74 64 54 42 31 22 24 25 16 359 24 21 28 31 29 26 27 29 28 29